[[{"header":{"parameterUnit":"m.s-1","parameterCategory":1,"la1":30.2992,"la2":30.254,"lo1":-89.0895,"lo2":-89.0443,"dy":0.0025,"dx":0.0025,"nx":19,"ny":19,"refTime":"2026-03-07T09:00:00:Z","depth":0,"parameterNumber":2,"parameterNumberName":"U-component_of_WINDS"},"data":[0,0,0,-1.0917,-1.0915,-1.0847,-1.0847,-1.0763,-1.0762,0,0,0,0,0,0,0,0,0,0,0,-1.0941,-1.0941,-1.0917,-1.0915,-1.0848,-1.0847,-1.0763,-1.0762,0,0,0,0,0,0,0,0,0,0,0,-1.0941,-1.0941,-1.094,-1.0915,-1.0848,-1.0847,-1.0763,-1.0813,0,0,0,0,0,0,0,0,0,0,-1.0878,-1.0905,-1.0941,-1.094,-1.0915,-1.0848,-1.0847,-1.0815,-1.081,-1.0796,0,-1.0787,0,-1.0773,-1.0757,-1.0757,0,0,0,-1.0911,-1.091,-1.0888,-1.094,-1.0914,-1.0848,-1.0877,-1.0812,-1.0806,-1.0788,-1.0785,-1.0782,-1.0772,-1.0756,-1.0756,-1.0695,-1.0695,0,0,-1.0915,-1.093,-1.0892,-1.0884,-1.0898,-1.0879,-1.0875,-1.0808,-1.0805,-1.0785,-1.078,-1.0771,-1.0756,-1.0755,-1.0695,-1.0695,0,0,0,-1.0928,-1.0933,-1.0913,-1.0888,-1.0876,-1.0877,-1.0872,-1.0808,-1.08,-1.0779,-1.077,-1.0755,-1.0754,-1.0695,-1.0695,-1.0706,0,0,0,-1.0931,-1.0941,-1.0915,-1.0924,-1.0877,-1.0842,-1.0874,-1.0805,-1.0797,-1.077,-1.0755,-1.0754,-1.0695,-1.0695,-1.0706,-1.0708,0,0,0,-1.0944,-1.0943,-1.0935,-1.0925,-1.0896,-1.0842,-1.0831,-1.0803,-1.0791,-1.0757,-1.0753,-1.0695,-1.0695,-1.0706,-1.0708,-1.0697,0,0,0,-1.0962,-1.0944,-1.0935,-1.0911,-1.0897,-1.0851,-1.0831,-1.0795,-1.0767,-1.0755,-1.0695,-1.0695,-1.0706,-1.0708,-1.0697,-1.069,-1.0689,0,0,-1.0948,-1.0943,-1.0928,-1.0918,-1.0878,-1.086,-1.082,-1.0778,-1.0759,-1.0717,-1.0715,-1.0706,-1.0708,-1.0697,-1.0678,-1.0678,0,0,0,-1.0929,-1.0918,-1.0904,-1.088,-1.0849,-1.0822,-1.0785,-1.077,-1.0733,-1.0742,-1.0699,-1.07,-1.0692,-1.0688,-1.0687,-1.068,-1.0694,-1.0694,-1.0694,-1.093,-1.091,-1.0883,-1.0854,-1.083,-1.0793,-1.0771,-1.0743,-1.0726,-1.0717,-1.0704,-1.0696,-1.0691,-1.0691,-1.0683,-1.0699,-1.0699,-1.0699,-1.0699,-1.0908,-1.0889,-1.087,-1.0838,-1.0814,-1.0785,-1.0748,-1.0738,-1.0706,-1.0703,-1.0696,-1.0694,-1.0691,-1.0683,-1.07,-1.07,-1.0699,-1.0699,-1.0699,-1.0906,-1.0893,-1.0876,-1.0839,-1.0812,-1.0782,-1.0753,-1.0733,-1.0713,-1.0706,-1.0689,-1.0689,-1.0685,-1.0699,-1.0699,-1.0699,-1.0699,-1.0699,-1.0699,-1.091,-1.0891,-1.0871,-1.0838,-1.0819,-1.0792,-1.0755,-1.0735,-1.0708,-1.0695,-1.0695,-1.0679,-1.0695,-1.0699,-1.0699,-1.0699,-1.0699,-1.0699,-1.0699,-1.0894,-1.0895,-1.0863,-1.0845,-1.0804,-1.0778,-1.0753,-1.0715,-1.0696,-1.0682,-1.0668,-1.0684,-1.0676,-1.0676,-1.0679,-1.0674,-1.0674,-1.0674,-1.0674,-1.0892,-1.0887,-1.085,-1.0822,-1.0793,-1.0767,-1.073,-1.07,-1.0669,-1.0655,-1.0653,-1.0656,-1.0657,-1.0649,-1.0649,-1.0652,-1.0639,-1.0639,-1.0639,-1.088,-1.0871,-1.0845,-1.0817,-1.0784,-1.0755,-1.0719,-1.0685,-1.065,-1.0637,-1.0644,-1.0645,-1.0649,-1.0652,-1.0639,-1.0641,-1.0645,0,0]},{"header":{"parameterUnit":"m.s-1","parameterCategory":1,"la1":30.2992,"la2":30.254,"lo1":-89.0895,"lo2":-89.0443,"dy":0.0025,"dx":0.0025,"nx":19,"ny":19,"refTime":"2026-03-07T09:00:00:Z","depth":0,"parameterNumber":3,"parameterNumberName":"V-component_of_WINDS"},"data":[0,0,0,1.4079,1.4081,1.4163,1.4164,1.4258,1.4259,0,0,0,0,0,0,0,0,0,0,0,1.4048,1.4049,1.4079,1.4081,1.4163,1.4164,1.4258,1.4259,0,0,0,0,0,0,0,0,0,0,0,1.4048,1.4049,1.4049,1.4081,1.4163,1.4164,1.4258,1.4199,0,0,0,0,0,0,0,0,0,0,1.4121,1.4086,1.4048,1.4049,1.4081,1.4163,1.4164,1.4197,1.4203,1.4216,0,1.4227,0,1.4244,1.4264,1.4265,0,0,0,1.4085,1.4081,1.4109,1.4049,1.4082,1.4163,1.4127,1.42,1.4207,1.4224,1.4228,1.4232,1.4246,1.4265,1.4265,1.433,1.433,0,0,1.408,1.4059,1.4104,1.4114,1.4101,1.4125,1.413,1.4205,1.4207,1.4228,1.4234,1.4247,1.4266,1.4266,1.4329,1.433,0,0,0,1.4064,1.4056,1.4083,1.4109,1.4125,1.4127,1.4133,1.4204,1.4214,1.4235,1.4248,1.4266,1.4267,1.4329,1.4329,1.4315,0,0,0,1.4062,1.4047,1.408,1.4068,1.4124,1.4166,1.413,1.4209,1.4218,1.4248,1.4266,1.4268,1.4329,1.4329,1.4315,1.4311,0,0,0,1.4045,1.4045,1.4055,1.4067,1.4102,1.4165,1.418,1.4212,1.4226,1.4265,1.4268,1.4329,1.4329,1.4315,1.4312,1.4323,0,0,0,1.402,1.4039,1.4054,1.408,1.4101,1.4155,1.418,1.4221,1.4252,1.4267,1.4329,1.4329,1.4315,1.4312,1.4323,1.433,1.433,0,0,1.4032,1.404,1.4057,1.4073,1.4119,1.4144,1.4189,1.4237,1.4259,1.4305,1.4306,1.4315,1.4312,1.4323,1.4339,1.4339,0,0,0,1.4053,1.4066,1.4083,1.4112,1.4151,1.4183,1.4227,1.4245,1.4285,1.4278,1.4323,1.4321,1.4329,1.4333,1.4333,1.4342,1.433,1.433,1.433,1.404,1.4069,1.4099,1.4139,1.4167,1.4213,1.4239,1.4271,1.4291,1.4301,1.4315,1.4321,1.4325,1.4325,1.4334,1.432,1.432,1.432,1.432,1.406,1.4083,1.411,1.415,1.418,1.4214,1.4259,1.4272,1.4307,1.4312,1.432,1.4324,1.4325,1.4334,1.4319,1.4319,1.4319,1.4319,1.4319,1.4055,1.4071,1.4094,1.4141,1.4175,1.4213,1.4247,1.4273,1.4297,1.4306,1.4324,1.4324,1.4329,1.4312,1.4312,1.4312,1.4313,1.4313,1.4313,1.4041,1.4067,1.4093,1.4136,1.416,1.4194,1.4242,1.4265,1.4298,1.4315,1.4315,1.4334,1.4319,1.4315,1.4313,1.4313,1.4313,1.4313,1.4313,1.4052,1.4054,1.4094,1.4118,1.4172,1.4204,1.4237,1.4284,1.4307,1.4323,1.4341,1.4326,1.4335,1.4335,1.4332,1.4334,1.4334,1.4334,1.4334,1.4048,1.4056,1.4104,1.414,1.4179,1.4214,1.4258,1.4296,1.4335,1.4351,1.4354,1.4353,1.4351,1.4362,1.4361,1.4359,1.4368,1.4368,1.4368,1.4057,1.407,1.4103,1.4143,1.4187,1.4225,1.4268,1.4309,1.4354,1.437,1.4365,1.4364,1.4361,1.4358,1.4374,1.4373,1.4369,0,0]}]]